Regional Weather Roundup
Issued by NWS Boston, MA

Current Version | Previous Version | Text Only | Print | Product List | Glossary Off
Versions: 1 2 3 4 5 6 7 8 9 10 11 12 13 14 15 16 17 18 19 20 21 22 23 24 25 26 27

000
ASUS41 KBOX 151510
RWRBOX

REGIONAL WEATHER ROUNDUP
NATIONAL WEATHER SERVICE TAUNTON MA
1100 AM EDT TUE AUG 15 2017

NOTE:  "FAIR" INDICATES FEW OR NO CLOUDS BELOW 12,000 FEET WITH NO
SIGNIFICANT WEATHER AND/OR OBSTRUCTIONS TO VISIBILITY.

MAZALL-151600-
EASTERN MASSACHUSETTS

CITY           SKY/WX    TMP DP  RH WIND       PRES   REMARKS
BOSTON         CLOUDY    79  65  62 W6        29.92F
BEVERLY        CLOUDY    76  66  71 SW7       29.92F
LAWRENCE       CLOUDY    75  65  70 SW5       29.94F
BEDFORD        CLOUDY    74  65  73 S5        29.92F
BLUE HILL        N/A     74  64  71 S8        29.95S
NORWOOD        CLOUDY    77  68  73 SW7       29.93F
MARSHFIELD     PTSUNNY   79  64  61 SW8       29.93F
PLYMOUTH       MOSUNNY   78  60  53 SW10      29.95S
TAUNTON        MOSUNNY   79  64  60 S7        29.94F
NEW BEDFORD    MOSUNNY   76  64  66 S7        29.94F
$$

MAZALL-151600-
CAPE COD AND THE ISLANDS

CITY           SKY/WX    TMP DP  RH WIND       PRES   REMARKS
FALMOUTH       CLOUDY    75  64  69 W7        29.96F
HYANNIS        CLOUDY    75  69  81 SW6       29.94S
CHATHAM        CLOUDY    75  72  90 VRB3      29.96S
PROVINCETOWN   PTSUNNY   76  67  73 SW8       29.95F
NANTUCKET      CLOUDY    72  69  90 CALM      29.96S
MARTHAS VNYRD  CLOUDY    75  68  78 CALM      29.95F
$$

MAZALL-151600-
CENTRAL AND WESTERN MASSACHUSETTS

CITY           SKY/WX    TMP DP  RH WIND       PRES   REMARKS
WORCESTER      CLOUDY    70  64  81 SW12      29.96F
FITCHBURG      CLOUDY    72  68  87 SE5       29.94F
ORANGE         CLOUDY    68  67  96 S3        29.94F
SPRINGFIELD    CLOUDY    71  68  90 S3        29.92F FOG
WESTFIELD      CLOUDY    70  69  97 CALM      29.93F
NORTH ADAMS    CLOUDY    68  64  87 E3        29.93F
PITTSFIELD     CLOUDY    68  63  84 SW5       29.94F
$$

RIZALL-151600-
RHODE ISLAND

CITY           SKY/WX    TMP DP  RH WIND       PRES   REMARKS
PROVIDENCE     PTSUNNY   77  68  73 S7        29.95F
NEWPORT        MOSUNNY   77  65  66 S5        29.95F
BLOCK ISLAND   CLOUDY    73  64  73 NE3       29.95F
WESTERLY       CLOUDY    76  67  73 CALM      29.95F
$$

CTZALL-151600-
CONNECTICUT

CITY           SKY/WX    TMP DP  RH WIND       PRES   REMARKS
BRADLEY INTL   CLOUDY    74  68  81 S8        29.93F
HARTFORD       CLOUDY    76  68  76 VRB5      29.93F
BRIDGEPORT     CLOUDY    74  62  66 S5        29.93F
DANBURY        CLOUDY    75  67  76 S5        29.95F
GROTON         CLOUDY    75  65  70 S5        29.94S
NEW HAVEN      CLOUDY    74  66  76 SE6       29.94S
CHESTER        NOT AVBL
MERIDEN        CLOUDY    74  66  76 S5        29.94S
WILLIMANTIC    CLOUDY    74  67  78 SW5       29.94F
OXFORD         CLOUDY    71  66  84 CALM      29.97S
$$

MEZ002-015-021-024-NHZ003-005-008-011-012-014-VTZ005-008-151600-
NORTHERN NEW ENGLAND

CITY           SKY/WX    TMP DP  RH WIND       PRES   REMARKS
PORTLAND ME    MOSUNNY   77  61  57 SW10G17   29.91F
BANGOR ME      PTSUNNY   74  63  68 S10       29.92F
CONCORD NH     CLOUDY    69  65  86 SE6       29.92F
MANCHESTER NH  CLOUDY    69  64  84 S7        29.92S HAZE
NASHUA NH      CLOUDY    69  67  93 CALM      29.93F
PORTSMOUTH NH  CLOUDY    74  64  69 W7        29.91S
JAFFREY NH     CLOUDY    67  67 100 S6        29.96S FOG
KEENE NH         N/A    N/A N/A N/A MISG        N/A
BURLINGTON VT  MOSUNNY   75  62  64 S15       29.86F
MT. WASHINGTON FOG       54  54 100 W16         N/A  VSB 1/16
$$

NYZ052-076-151600-
EASTERN NEW YORK

CITY           SKY/WX    TMP DP  RH WIND       PRES   REMARKS
ALBANY         PTSUNNY   73  64  73 SE8       29.91F
NEW YORK CITY  CLOUDY    73  69  87 VRB5      29.92F
$$

ANZALL-151600-
MARINE OBSERVATIONS

STATION/POSITION TIME  TEMP    WIND        PRES    VSBY  WAVE
                       AIR SEA DIR/SP/G                  HT/PER
                 (UTC) (F)     (DEG/KT/KT) (MB)    (MI)  (FT/S)
BOSTON BUOY      1450   69 68  160/  4/  6 1013.8F         1/ 7
BUZZARDS BAY     1400   70     290/  4/  4 1014.8R
NANTUCKET SOUND  1450   71 69  300/  4/  6 1014.4F         1
MASS BAY-STELLWA 1404   68 68  190/  6/  6 1013.2F         1/ 8
ISLE OF SHOALS   1400   66     180/  7/  7 1013.4F
S OF BLOCK IS    1443      71                N/A           3/11
$$

......................KEY.........................
  SKY/WX - SKY CONDITION/PRESENT WEATHER
  TMP    - TEMPERATURE IN FAHRENHEIT
  DWPT   - DEWPOINT IN FAHRENHEIT
  RH     - RELATIVE HUMIDITY IN PERCENT
  WIND   - DIRECTION AND SPEED IN MPH
  PRES   - MEAN SEA LEVEL PRESSURE IN INCHES OF HG
  WCI    - WIND CHILL INDEX
  VSB    - VISIBILITY IN MILES
  HX     - HEAT INDEX
  TC     - TEMPERATURE IN CELSIUS
  VRB    - VARIABLE WIND DIRECTION
  N/A    - NOT AVAILABLE




USA.gov is the U.S. government's official web portal to all federal, state and local government web resources and services.